Skip Page Navigation
NASA JPL Caltech
NASA Logo - Jet Propulsion Laboratory + View the NASA Portal
+ Near-Earth Object (NEO) Program
Search JPL
JPL Home Earth Solar System Stars & Galaxies Technology
JPL Solar System Dynamics
BODIES ORBITS EPHEMERIDES TOOLS PHYSICAL DATA DISCOVERY FAQ SITE MAP
JPL Small-Body Database Browser
Search: [ help ]  
11378 Dauria (1998 SV60)
Classification: Main-belt Asteroid          SPK-ID: 2011378
Ephemeris | Orbit Diagram | Orbital Elements | Physical Parameters | Discovery Circumstances ]

[ show orbit diagram ]
Orbital Elements at Epoch 2457600.5 (2016-Jul-31.0) TDB
Reference: JPL 17 (heliocentric ecliptic J2000)
 Element Value Uncertainty (1-sigma)   Units 
e .133552843359781 5.9284e-08  
a 2.394647624021014 1.2704e-08 au
q 2.074835624988264 1.4301e-07 au
i 3.44146463687156 5.4277e-06 deg
node 143.3645093439359 9.3152e-05 deg
peri 254.3122271011113 9.5323e-05 deg
M 266.767350499149 2.1607e-05 deg
tp 2457951.030954471591
(2017-Jul-16.53095447)
8.2559e-05 JED
period 1353.508071318092
3.71
1.0771e-05
2.949e-08
d
yr
n .2659755103265988 2.1166e-09 deg/d
Q 2.714459623053765 1.4401e-08 au
  Orbit Determination Parameters
   # obs. used (total)      1033  
   data-arc span      10130 days (27.73 yr)  
   first obs. used      1987-10-23  
   last obs. used      2015-07-18  
   planetary ephem.      DE431  
   SB-pert. ephem.      SB431-BIG16  
   condition code      0  
   fit RMS      .55004  
   data source      ORB  
   producer      Otto Matic  
   solution date      2015-Sep-02 14:32:55  

Additional Information
 Earth MOID = 1.08368 au 
 Jupiter MOID = 2.68981 au 
 T_jup = 3.515 
[ show covariance matrix ]

Ephemeris | Orbit Diagram | Orbital Elements | Physical Parameters | Discovery Circumstances ]

Physical Parameter Table
Parameter Symbol Value Units Sigma Reference Notes
absolute magnitude H 14.5 mag n/a MPO337354  

11378 Dauria           Discovered 1998 Sept. 17 by the Lowell Observatory Near-Earth Object Search at the Anderson Mesa Station.
Florida amateur astronomer Tippy D´Auria (b. 1935) is founder of the Winter Star Party. For many years he has worked to encourage both beginning and advanced sky-watchers in the hobby.
NOTE: some special characters may not display properly (any characters within {} are an attempt to place the proper accent above a character)
Reference: 20010109/MPCPages.arcLast Updated: 2009-05-11

Alternate Designations
 1998 SV60 = 1987 UU7 = 1997 LX9 
Ephemeris | Orbit Diagram | Orbital Elements | Physical Parameters | Discovery Circumstances ]
ABOUT SSD CREDITS/AWARDS PRIVACY/COPYRIGHT GLOSSARY LINKS
FirstGov 2016-Apr-30 11:14 UT
(server date/time)  
NASA Home Page
Site Manager:   Ryan S. Park
Webmaster  Alan B. Chamberlin